| time (UTC) | temp F | wind direction | speed knots | gust knots | rain 1hr in | rain 24hr in | rain mn in | humidity % | barometer mb |
| 20260504213026 | 73 | 0.0 | 0.0 | 0.00 | 0.00 | 0.00 | 32 | 1009.5 | |
| 20260504211522 | 74 | 0.0 | 0.0 | 0.00 | 0.00 | 0.00 | 33 | 1009.6 | |
| 20260504210116 | 74 | 0.0 | 0.0 | 0.00 | 0.00 | 0.00 | 31 | 1009.7 | |
| 20260504204602 | 74 | 0.0 | 0.0 | 0.00 | 0.00 | 0.00 | 29 | 1009.7 | |
| 20260504203051 | 75 | 0.0 | 0.0 | 0.00 | 0.00 | 0.00 | 30 | 1009.7 | |
| 20260504201529 | 75 | 0.0 | 0.0 | 0.00 | 0.00 | 0.00 | 30 | 1009.8 | |
| 20260504200025 | 75 | 0.0 | 0.0 | 0.00 | 0.00 | 0.00 | 30 | 1009.8 | |
| 20260504194503 | 75 | 0.0 | 0.0 | 0.00 | 0.00 | 0.00 | 30 | 1009.9 | |
| 20260504193059 | 75 | 0.0 | 0.0 | 0.00 | 0.00 | 0.00 | 30 | 1010.1 | |
| 20260504191546 | 75 | 0.0 | 0.0 | 0.00 | 0.00 | 0.00 | 31 | 1010.3 | |
| 20260504190043 | 76 | 0.0 | 0.0 | 0.00 | 0.00 | 0.00 | 30 | 1010.5 | |
| 20260504184513 | 75 | 0.0 | 0.0 | 0.00 | 0.00 | 0.00 | 29 | 1010.7 | |
| 20260504183008 | 74 | 0.0 | 0.0 | 0.00 | 0.00 | 0.00 | 34 | 1010.9 | |
| 20260504181548 | 74 | 0.0 | 0.0 | 0.00 | 0.00 | 0.00 | 30 | 1011.0 | |
| 20260504180112 | 74 | 0.0 | 0.0 | 0.00 | 0.00 | 0.00 | 32 | 1011.3 | |
| 20260504174519 | 74 | 0.0 | 0.0 | 0.00 | 0.00 | 0.00 | 33 | 1011.6 | |
| 20260504173019 | 73 | 0.0 | 0.0 | 0.00 | 0.00 | 0.00 | 35 | 1011.7 | |
| 20260504171556 | 73 | 0.0 | 0.0 | 0.00 | 0.00 | 0.00 | 34 | 1011.9 | |
| 20260504081510 | 42 | 0.0 | 0.0 | 0.00 | 0.00 | 0.00 | 76 | 1014.6 | |
| 20260504044517 | 48 | 0.0 | 0.0 | 0.00 | 0.00 | 0.00 | 55 | 1014.2 | |
| 20260504043013 | 49 | 0.0 | 0.0 | 0.00 | 0.00 | 0.00 | 54 | 1014.0 | |
| 20260504041508 | 49 | 0.0 | 0.0 | 0.00 | 0.00 | 0.00 | 53 | 1013.7 | |
| 20260504040008 | 50 | 0.0 | 0.0 | 0.00 | 0.00 | 0.00 | 51 | 1013.6 | |
| 20260504034600 | 50 | 0.0 | 0.0 | 0.00 | 0.00 | 0.00 | 49 | 1013.6 | |
| 20260504033058 | 50 | 0.0 | 0.0 | 0.00 | 0.00 | 0.00 | 49 | 1013.5 | |
| 20260504031617 | 51 | 0.0 | 0.0 | 0.00 | 0.00 | 0.00 | 48 | 1013.5 | |
| 20260504030047 | 51 | 0.0 | 0.0 | 0.00 | 0.00 | 0.00 | 47 | 1013.4 | |
| 20260504024545 | 51 | 0.0 | 0.0 | 0.00 | 0.00 | 0.00 | 47 | 1013.4 | |
| 20260504023021 | 51 | 0.0 | 0.0 | 0.00 | 0.00 | 0.00 | 48 | 1013.4 | |
| 20260504021518 | 51 | 0.0 | 0.0 | 0.00 | 0.00 | 0.00 | 48 | 1013.4 | |
| 20260504020105 | 52 | 0.0 | 0.0 | 0.00 | 0.00 | 0.00 | 46 | 1013.3 | |
| 20260504014552 | 52 | 0.0 | 0.0 | 0.00 | 0.00 | 0.00 | 46 | 1013.3 | |
| 20260504013031 | 51 | 0.0 | 0.0 | 0.00 | 0.00 | 0.00 | 49 | 1013.2 | |
| 20260504011527 | 51 | 0.0 | 0.0 | 0.00 | 0.00 | 0.00 | 50 | 1013.0 | |
| 20260504010005 | 53 | 0.0 | 0.0 | 0.00 | 0.00 | 0.00 | 46 | 1012.7 | |
| 20260504004501 | 54 | 0.0 | 0.0 | 0.00 | 0.00 | 0.00 | 41 | 1012.5 | |
| 20260504003044 | 55 | 0.0 | 0.0 | 0.00 | 0.00 | 0.00 | 38 | 1012.4 | |
| 20260504001542 | 56 | 0.0 | 0.0 | 0.00 | 0.00 | 0.00 | 37 | 1012.2 | |
| 20260504000013 | 57 | 0.0 | 0.0 | 0.00 | 0.00 | 0.00 | 36 | 1012.0 | |
| 20260503234511 | 58 | 0.0 | 0.0 | 0.00 | 0.00 | 0.00 | 34 | 1011.9 | |
| 20260503233048 | 58 | 0.0 | 0.0 | 0.00 | 0.00 | 0.00 | 33 | 1011.8 | |
| 20260503231550 | 59 | 0.0 | 0.0 | 0.00 | 0.00 | 0.00 | 32 | 1011.8 | |
| 20260503230023 | 59 | 0.0 | 0.0 | 0.00 | 0.00 | 0.00 | 32 | 1011.6 | |
| 20260503224518 | 60 | 0.0 | 0.0 | 0.00 | 0.00 | 0.00 | 31 | 1011.6 | |
| 20260503223057 | 60 | 0.0 | 0.0 | 0.00 | 0.00 | 0.00 | 29 | 1011.5 | |
| 20260503221552 | 60 | 0.0 | 0.0 | 0.00 | 0.00 | 0.00 | 29 | 1011.4 | |
| 20260503220037 | 61 | 0.0 | 0.0 | 0.00 | 0.00 | 0.00 | 30 | 1011.6 | |
| 20260503214527 | 61 | 0.0 | 0.0 | 0.00 | 0.00 | 0.00 | 29 | 1011.6 |